Tracking 19484 objects as of 19-Jan-2019
HD Live streaming from Space Station
objects crossing your sky now

COSMOS 1328

Track COSMOS 1328 now!
10-day predictions
COSMOS 1328 is classified as:


NORAD ID: 12987
Int'l Code: 1981-117A
Perigee: 542.1 km
Apogee: 558.0 km
Inclination: 82.5 °
Period: 95.5 minutes
Semi major axis: 6921 km
RCS: 9.2433 m2 (large)
Launch date: December 3, 1981
Source: Commonwealth of Independent States (former USSR) (CIS)
Launch site: PLESETSK MISSILE AND SPACE COMPLEX (PKMTR)
aabbcc
Your satellite tracking list
Your tracking list is empty




NASA's NSSDC Master Catalog

Two Line Element Set (TLE):
1 12987U 81117A   19018.12487957  .00001084  00000-0  68847-4 0  9997
2 12987  82.5158  36.1872 0011451  64.8798 295.3617 15.07807972 19873
Source of the keplerian elements: AFSPC